STARLINK-32134, 60300

Orbit data source: Space-Track

STARLINK-32134, 60300 is a payload satellite owned by SpaceX/Seattle (US) in LEO that was launched on Sun, 28 Jul 2024 UTC via an FALCON 9 launch vehicle from the Air Force Eastern Test Range (AFETR). Payloads include a variety of satellites, spacecraft, and rockets equipped with specific instruments for various scientific and technological missions. These include communications satellites like Starlink; space stations such as the ISS; scientific satellites like the Hubble; Earth observation satellites from companies like Planet Labs, Umbra, and HawkEye 360; GPS; miniature CubeSats for education and research; and military/defense satellites.

Loading next visibility...
STARLINK-32134 details
Identifier
60300, 2024-132Y
Orbit
LEO
Last TLE update13 hours ago
Origin
Flag of USSpaceX/Seattle (US)
ManufacturerSpaceX/Seattle
MissionOperational spacecraft
Bus & MotorSTARLINK V2M, Unknown motor
Mass730 kg wet, ~700 kg dry
Launch date (UTC)
2024-07-28 (6 months ago)
Launch vehicle
FALCON 9
Launch site
Air Force Eastern Test Range (AFETR)
Object type
Payload
Rocket body
Debris
Shape & HBRUnknown
Radar Cross SectionLarge (>1 m²)

Expand to show TLE details & history

TLE from 13 hours ago
0 STARLINK-32134
1 60300U 24132Y   25014.78016125  .00001258  00000-0  54588-4 0  9993
2 60300  53.1607 198.2068 0001278  88.5180 271.5968 15.30198257 27429
Epoch: 2025-01-14T18:43Z
Definitive object data (Epoch: 2025-01-14T18:43:25.931Z)
Latitude0.00002°
Longitude162.86682°
Altitude476.096 km
Speed7.629 km/s
True Right ascension13h 12m 49s
True Declination0° 00' 00"
Sunlit
Object was in daylight at TLE epoch
Visualization TLE readout
Latitude-29.34457°
Longitude5.01806°
Altitude484.635 km
Speed7.623 km/s
Apparent Right ascension00h 08m 38s
Apparent Declination-43° 08' 25"
Sunlit
Object is in daylight
Visualization observer readout
Local Sidereal Time08:52:18
Azimuth248.446° W
Elevation-53.639°
Doppler factor1
Orbital elements
Apogee altitude476.352 km
Perigee altitude474.601 km
Semi-major axis6,853.614 km
Eccentricity0.0001278
Inclination53.1607°
RAAN198.2068°
Arg. of periapsis88.518°
True anomaly271.58216°
Mean anomaly271.5968°
Eccentric anomaly271.58948°
Mean motion3.82528 °/min
BSTAR0.000054588
Orbital period94.11 mins
Loading maneuver chart data...
Loading historical data...
Loading historical data...
Loading historical data...
Loading historical data...
Loading historical data...
Loading historical data...
Loading historical data...

STARLINK-32134 Visibility forecast

Observer location: undefined°, undefined

Span
Click to sort rows by Start time (UTC) header in descending order
Start Az.
Max El. time (UTC)
Max El. Az.
Max El.
End time (UTC)
End Az.
4 mins2025-01-15 13:41:38.319Z166.517° S2025-01-15 13:43:38.319Z126.752° SE18.476°2025-01-15 13:45:38.319Z88.571° E
5 mins2025-01-15 15:19:38.319Z265.293° W2025-01-15 15:21:38.319Z349.825° N35.409°2025-01-15 15:24:38.319Z40.299° NE
4 mins2025-01-15 20:16:38.319Z352.649° N2025-01-15 20:17:38.319Z15.02° NNE21.095°2025-01-15 20:20:38.319Z76.856° E
6 mins2025-01-15 21:53:38.319Z298.154° NW2025-01-15 21:56:38.319Z192.415° SSW38.041°2025-01-15 21:59:38.319Z146.015° SSE
|